This demonstration page uses our WeatherBlox Daily Observations layout. Learn more.

Left ArrowRight Arrow

41.55636, -103.73856

Hourly Observations for June 13, 2015

Temp ( °F °C ) Dew Point ( °F °C ) Humidity (%) Winds ( mph kmh ) Pressure ( in mb ) Visibility ( mi km ) Precip ( " mm )
12:53 am 00:53 Clear 57 13.9 55 12.8 93 93 ESE 7 11 29.78 1008 10 16.0934 0 0
1:53 am 01:53 Clear 57 13.9 55 12.8 93 93 E 7 11 29.77 1008 10 16.0934 0 0
2:53 am 02:53 Clear 56 13.3 54 12.2 93 93 ESE 7 11 29.75 1007 10 16.0934 0 0
3:53 am 03:53 Clear 55 12.8 53 11.7 93 93 ESE 7 11 29.73 1007 8 12.87472 0 0
4:53 am 04:53 Clear 54 12.2 53 11.7 97 97 E 6 9 29.72 1007 7 11.26538 0 0
5:53 am 05:53 Sunny with Mist and Fog 55 12.8 54 12.2 96 96 E 9 15 29.72 1007 5 8.0467 0 0
6:30 am 06:30 Partly Cloudy with Mist and Fog 55 13 55 13 100 100 E 8 13 29.74 1007 2.5 4.02335 0 0
6:32 am 06:32 Mostly Cloudy with Mist and Fog 55 13 55 13 100 100 E 7 11 29.74 1007 1 1.60934 0 0
6:36 am 06:36 Mostly Cloudy with Fog 55 13 55 13 100 100 E 9 15 29.74 1007 0.25 0.402335 0 0
6:53 am 06:53 Mostly Cloudy with Fog 57 13.9 56 13.3 96 96 ESE 9 15 29.72 1006 0.25 0.402335 0 0
6:59 am 06:59 Mostly Cloudy with Mist and Fog 57 14 55 13 94 94 ESE 10 17 29.74 1007 1 1.60934 0 0
7:08 am 07:08 Mostly Cloudy 57 14 57 14 100 100 ESE 10 17 29.74 1007 9 14.48406 0 0
7:15 am 07:15 Partly Cloudy 59 15 57 13.9 93 93 E 9 15 29.71 1006 7 11.26538 0 0
7:21 am 07:21 Mostly Cloudy with Mist and Fog 58 14.4 57 13.9 97 97 E 10 17 29.74 1007 2.5 4.02335 0 0
7:31 am 07:31 Mostly Cloudy with Mist and Fog 60 15.6 58 14.4 93 93 E 10 17 29.71 1006 5 8.0467 0 0
7:50 am 07:50 Partly Cloudy 63 17 57 14 83 83 ESE 10 17 29.68 1005 10 16.0934 0 0
7:53 am 07:53 Mostly Sunny 63 17.2 58 14.4 84 84 ESE 10 17 29.72 1006 10 16.0934 0 0
8:53 am 08:53 Sunny 67 19.4 58 14.4 73 73 SE 8 13 29.74 1007 10 16.0934 0 0
9:53 am 09:53 Sunny 70 21.1 59 15 68 68 VRB 3 6 29.73 1007 10 16.0934 0 0
10:53 am 10:53 Sunny 74 23.3 58 14.4 57 57 Calm 29.73 1007 10 16.0934 0 0
11:53 am 11:53 Sunny 77 25 59 15 54 54 VRB 5 7 29.72 1007 10 16.0934 0 0
12:53 pm 12:53 Sunny 80 26.7 58 14.4 47 47 VRB 3 6 29.71 1006 10 16.0934 0 0
1:53 pm 13:53 Sunny 82 27.8 59 15 46 46 WSW 5 7 29.69 1006 10 16.0934 0 0
2:53 pm 14:53 Sunny 85 29.4 55 12.8 36 36 SW 3 6 29.68 1005 10 16.0934 0 0
3:53 pm 15:53 Sunny 86 30 57 13.9 37 37 NE 8 13 29.67 1005 10 16.0934 0 0
4:53 pm 16:53 Sunny 87 30.6 57 13.9 36 36 VRB 6 9 29.67 1005 10 16.0934 0 0
5:53 pm 17:53 Sunny 85 29.4 56 13.3 37 37 SSE 7 11 29.66 1004 10 16.0934 0 0
6:53 pm 18:53 Sunny 82 27.8 59 15 46 46 SE 7 11 29.67 1005 10 16.0934 0 0
7:53 pm 19:53 Sunny 79 26.1 59 15 50 50 ESE 15 24 29.68 1005 10 16.0934 0 0
8:53 pm 20:53 Clear 76 24.4 61 16.1 60 60 ESE 13 20 29.7 1006 10 16.0934 0 0
9:53 pm 21:53 Clear 74 23.3 61 16.1 64 64 ESE 12 19 29.72 1007 10 16.0934 0 0
10:53 pm 22:53 Clear 71 21.7 61 16.1 71 71 ESE 9 15 29.75 1007 10 16.0934 0 0
11:53 pm 23:53 Clear 70 21.1 61 16.1 73 73 ESE 9 15 29.74 1007 10 16.0934 0 0

Powered by AerisWeather